Location: Newark
(45.5000°N, 11.4167°E)
Time: 09:44:55
(UTC+00:00)

Transit 2A Rocket - Pass Details

Date: 26 August 2019
Orbit: 592 x 911 km, 66.7° (Epoch: 23 September)

Event Time Altitude Azimuth Distance (km) Brightness Sun altitude
Rises 00:29:01 0° 335° (NNW) 3,074 8.7 -31.6°
Reaches altitude 10° 00:32:22 10° 358° (N) 2,088 8.0 -31.4°
Maximum altitude 00:35:07 15° 34° (NE) 1,716 7.6 -31.2°
Drops below altitude 10° 00:37:45 10° 70° (ENE) 1,996 7.6 -31.0°
Sets 00:40:51 0° 94° (E) 2,861 8.2 -30.8°
